Location: Balcones
(3.7244°N, 75.6017°W)
Time: 23:33:41
(UTC+00:00)

IRS-P3 - Visible Passes

Search period start: 12 March 2026 00:00
Search period end: 22 March 2026 00:00
Orbit: 811 x 815 km, 99.0° (Epoch: 12 March)

Date Brightness Start Highest point End Pass type
(mag) Time Alt. Az. Time Alt. Az. Time Alt. Az.
12 Mar 7.3 00:58:42 10° SW 01:00:46 12° WSW 01:02:49 10° W visible
13 Mar 6.5 00:33:46 10° SSW 00:37:56 24° WSW 00:42:07 10° NW visible
14 Mar 5.4 00:10:04 10° S 00:15:07 44° WSW 00:20:09 10° NNW visible
14 Mar 4.2 23:46:57 10° S 23:52:17 84° WSW 23:57:36 10° NNW visible
15 Mar 7.3 10:46:05 10° ENE 10:48:59 15° ESE 10:51:53 10° SE visible
15 Mar 4.3 23:24:19 10° SSE 23:29:28 52° ENE 23:34:37 10° N visible
17 Mar 6.8 00:42:36 10° SSW 00:46:17 19° WSW 00:49:59 10° WNW visible
18 Mar 5.8 00:18:38 10° SSW 00:23:27 36° WSW 00:28:17 10° NW visible
18 Mar 4.5 23:55:21 10° S 00:00:38 68° WSW 00:05:55 10° NNW visible
19 Mar 4.1 23:32:33 10° SSE 23:37:49 64° ENE 23:43:04 10° N visible
21 Mar 7.0 00:51:36 10° SW 00:54:38 15° WSW 00:57:40 10° WNW visible
